Location: Kearney
(40.6990°N, 99.0810°W)
Time: 07:50:22
(UTC-05:00)

Daily predictions for brighter satellites

Satellite Brightness Start Highest point End
(mag) Time Altitude Azimuth Time Altitude Azimuth Time Altitude Azimuth
DELTA 2 R/B (1) 3.7 19:07:03 10° W 19:12:38 79° S 19:18:14 10° E
Cosmos 1500 Rocket 4.0 19:10:00 10° N 19:14:03 37° ENE 19:18:04 10° SE
CZ-4 R/B 1.5 19:14:29 10° SSE 19:18:41 88° WSW 19:22:53 10° NNW
Cosmos 1626 2.2 19:15:44 10° N 19:19:25 55° E 19:23:04 10° SSE
SL-14 R/B 4.4 19:16:36 10° NNW 19:20:21 49° W 19:24:05 10° S
Cosmos 1624 Rocket 4.5 19:17:54 10° NNW 19:23:05 69° WSW 19:28:17 10° S
CZ-2C R/B 3.8 19:19:19 10° N 19:23:51 81° WNW 19:28:17 10° SSW
ALOS 3.0 19:21:32 10° SE 19:25:37 31° ENE 19:29:43 10° N
Cosmos 2366 rocket 4.0 19:23:31 10° S 19:29:45 86° E 19:35:57 10° N
MONITOR-E 4.2 19:30:31 10° SSE 19:33:31 52° ENE 19:36:32 10° N
APEX 3.9 19:31:18 10° SSE 19:33:56 22° ESE 19:35:53 13° ENE
Cosmos 2360 Rocket 2.2 19:28:34 10° NNW 19:34:14 69° ENE 19:39:52 10° SSE
COSMOS 2428 3.4 19:32:32 10° N 19:37:40 34° ENE 19:42:47 10° ESE
Thor Agena Rocket 4.4 19:33:56 10° NE 19:38:15 27° E 19:42:31 10° SSE
Abrixas 4.0 19:37:20 10° SSE 19:38:15 12° SE 19:38:32 12° SE
COSMO-SKYMED 1 2.5 19:33:58 10° NNE 19:38:19 69° E 19:42:38 10° S
Cosmos 158 Rocket 4.3 19:34:05 10° S 19:38:45 40° ESE 19:43:34 10° NNE
Cosmos 2333 Rocket 3.5 19:36:23 10° N 19:40:37 21° NE 19:43:38 14° E
Cosmos 2322 Rocket 3.7 19:37:01 10° NW 19:42:15 41° WSW 19:47:28 10° S
Cosmos 1833 4.3 19:36:47 10° SSW 19:42:30 87° WNW 19:48:11 10° NNE
Sich 1 4.5 19:40:15 10° NNE 19:43:11 17° ENE 19:44:35 15° E
Abrixas rocket 4.1 19:42:28 10° WNW 19:45:08 22° N 19:47:29 12° NE
Cosmos 2219 3.9 19:40:12 10° SSE 19:45:17 33° ESE 19:50:23 10° NE
BREEZE-M DEB (TANK) 4.2 19:34:29 10° W 19:48:26 60° NNW 19:52:04 16° ENE
Cosmos 1805 Rocket 4.2 19:48:42 10° NNE 19:52:39 32° ENE 19:56:35 10° SE
Cosmos 1315 Rocket 2.8 19:49:16 10° N 19:53:20 69° E 19:57:25 10° SSE
Centaur D AC-29 3.6 19:44:06 10° WSW 19:55:00 25° SSW 19:58:58 10° SE
EO 1 Del DPAF 4.1 19:52:27 10° N 19:56:13 53° WNW 19:59:57 10° SSW
Cosmos 44 3.2 19:53:59 10° SSW 19:58:12 49° ESE 20:01:36 15° NE
FENGYUN 3A 3.6 19:53:21 10° SSE 19:58:40 66° ENE 20:04:03 10° N
YAOGAN 1 4.0 19:57:02 10° S 20:01:08 42° W 20:05:15 10° NNW
Cosmos 1821 Rocket 4.0 20:00:28 10° SSE 20:06:25 55° E 20:12:29 10° NNE
Cosmos 1000 Rocket 4.4 20:00:31 10° N 20:06:42 62° E 20:12:47 10° SSE
Cosmos 2322 3.8 20:01:25 10° NNW 20:07:11 82° WSW 20:12:52 10° SSE
Cosmos 2151 4.0 20:04:13 10° NNW 20:08:21 49° W 20:12:26 10° SSW
Cosmos 1633 Rocket 4.1 20:05:13 10° NNE 20:08:36 25° ENE 20:08:36 25° ENE
Cosmos 1934 Rocket 4.3 20:04:12 10° SSE 20:10:11 45° E 20:16:11 10° NNE
Cosmos 1269 Rocket 4.0 20:07:18 10° S 20:12:28 60° ESE 20:17:40 10° NNE
Cosmos 2239 Rocket 4.4 20:07:33 10° S 20:13:35 63° E 20:19:39 10° NNE
FREGAT/IRIS 3.0 20:14:45 42° NE 20:14:45 42° NE 20:17:12 10° N
SPOT 3 Rocket 4.1 20:09:25 10° S 20:14:32 61° WSW 20:19:43 10° NNW
USA 267 3.8 20:12:42 23° E 20:15:54 36° SE 20:21:47 10° SSW
SJ-6B 3.2 20:16:15 36° ENE 20:16:15 36° ENE 20:19:31 10° N
RESURS DK-1 3.5 20:12:29 10° NW 20:16:26 45° WSW 20:20:21 10° S
Cosmos 44 Rocket 3.1 20:17:22 10° SSW 20:22:04 85° ESE 20:25:31 18° NNE
Cosmos 2219 Rocket 2.4 20:17:26 10° NNW 20:22:50 47° ENE 20:25:02 31° ESE
Cosmos 1726 1.9 20:19:22 10° S 20:23:03 71° E 20:26:44 10° NNE
SL-8 R/B 4.4 20:18:39 10° W 20:23:19 49° NNW 20:25:47 26° NE
Meteor 2-10 4.0 20:22:40 10° S 20:27:30 50° E 20:32:25 10° NNE
Cosmos 2098 Rocket 3.3 20:25:27 10° S 20:29:47 89° W 20:35:26 10° N
Aureole 2 Rocket 2.8 20:28:04 10° N 20:31:42 54° NE 20:31:42 54° NE
CSL-04 DEB 4.5 20:32:56 53° ENE 20:32:56 53° ENE 20:36:48 10° N
Delta 2 Rocket 3.9 20:29:38 10° WSW 20:33:01 35° S 20:33:10 35° S
Atlas Centaur 2 3.7 20:31:32 10° WSW 20:35:12 21° S 20:37:33 16° SSE
Cosmos 2221 3.5 20:32:01 10° SSW 20:36:11 48° W 20:40:25 10° N
Cosmos 2123 Rocket 4.0 20:30:03 10° N 20:36:14 60° E 20:42:24 10° SSE
BREEZE M DEB (TANK) 3.3 20:33:27 10° NW 20:36:19 27° N 20:36:19 27° N
Gbstr 26 Del rocket 3.7 20:33:58 10° NW 20:39:07 65° NNE 20:40:51 45° E
Cosmos 1605 Rocket 4.0 20:34:49 10° SSE 20:40:42 52° E 20:46:35 10° NNE
Cosmos 2333 4.3 20:37:10 10° NNW 20:42:54 79° WSW 20:47:32 16° SSE
H-2A R/B 2.9 20:42:45 29° S 20:44:39 72° W 20:48:35 10° NNW
Cosmos 1110 Rocket 4.1 20:42:49 10° N 20:48:02 55° ENE 20:48:02 55° ENE
CZ-4C R/B 2.2 20:45:01 10° SW 20:50:11 76° NW 20:53:44 24° NNE
USA 234 4.3 20:49:36 26° NE 20:51:14 29° NNE 20:56:40 10° NW
In-Cosmos 22 Rocket 4.1 20:49:41 10° N 20:55:26 74° E 20:57:08 47° SSE
Cosmos 2237 Rocket 2.6 20:50:09 10° NNW 20:55:03 45° NE 20:55:03 45° NE
Resurs 01 Rocket 3.3 21:01:21 23° N 21:01:21 23° N 21:03:05 10° N
DELTA 2 R/B (1) 4.2 20:53:32 10° W 20:58:51 45° SSW 20:59:55 40° S
Cosmos 2227 Rocket 3.5 20:57:00 10° S 20:59:25 25° S 20:59:25 25° S
ALOS 4.4 20:59:08 10° SSW 21:03:02 26° W 21:06:56 10° NW
SL-16 R/B 3.9 21:01:19 10° N 21:03:41 20° NNE 21:03:41 20° NNE
Envisat 4.0 21:15:46 36° N 21:15:46 36° N 21:18:47 10° N
Cosmos 1980 3.9 21:13:39 10° NNW 21:18:18 60° N 21:18:18 60° N
Meteor 2-2 Rocket 4.4 21:15:10 10° SSW 21:20:52 72° W 21:26:32 10° N
Sich 1 4.3 21:16:58 10° NNW 21:21:02 39° W 21:21:38 37° WSW
NOSS 0 Rocket 3.8 21:15:25 10° NNW 21:21:35 81° WSW 21:21:59 76° SSW
COSMOS 2428 4.1 21:16:47 10° NW 21:21:53 35° WSW 21:26:11 14° SSW
Cosmos 2333 Rocket 2.4 21:19:41 10° NNW 21:25:23 66° WSW 21:25:41 64° SW
USA 267 3.7 22:00:06 58° W 22:00:06 58° W 22:05:34 10° WSW
Cosmos 2219 Rocket 4.1 22:02:03 10° NW 22:06:26 24° WSW 22:06:49 24° WSW
